This is the latest recevied weather packets stored in our database for station/object KD2VWU. If no packets are shown the sender has not sent any weather packets the latest 10 day(s).
| Time | Temp. | Humidity | Pressure | Rain* | Wind** | Luminosity | Snow |
|---|---|---|---|---|---|---|---|
| 1777414898 | 15.56° C | 56% | 1015.4 hPa | 0 mm | - | - | - |
| 1777414597 | 15.56° C | 57% | 1015.1 hPa | 0 mm | - | - | - |
| 1777414292 | 15.56° C | 53% | 1015.5 hPa | 0 mm | - | - | - |
| 1777413987 | 15.56° C | 57% | 1015.2 hPa | 0 mm | - | - | - |
| 1777413683 | 15.56° C | 54% | 1015.2 hPa | 0 mm | - | - | - |
| 1777413379 | 15.56° C | 54% | 1015.5 hPa | 0 mm | - | - | - |
| 1777413075 | 15.56° C | 56% | 1015.4 hPa | 0 mm | - | - | - |
| 1777412770 | 15.56° C | 56% | 1015.5 hPa | 0 mm | - | - | - |
| 1777412469 | 15.56° C | 53% | 1015.5 hPa | 0 mm | - | - | - |
| 1777412167 | 15.56° C | 54% | 1015.6 hPa | 0 mm | - | - | - |
| 1777411863 | 15.56° C | 54% | 1015.4 hPa | 0 mm | - | - | - |
| 1777411562 | 15.56° C | 55% | 1015.4 hPa | 0 mm | - | - | - |
| 1777411256 | 15.56° C | 55% | 1015.5 hPa | 0 mm | - | - | - |
| 1777410951 | 15.56° C | 55% | 1015.6 hPa | 0 mm | - | - | - |
| 1777410651 | 16.11° C | 53% | 1015.5 hPa | 0 mm | - | - | - |
| 1777410346 | 16.11° C | 52% | 1015.3 hPa | 0 mm | - | - | - |
| 1777410039 | 16.11° C | 55% | 1015.4 hPa | 0 mm | - | - | - |
| 1777409734 | 16.11° C | 53% | 1015.6 hPa | 0 mm | - | - | - |
| 1777409431 | 16.11° C | 53% | 1015.7 hPa | 0 mm | - | - | - |
| 1777409127 | 16.11° C | 51% | 1015.5 hPa | 0 mm | - | - | - |
| 1777408822 | 16.11° C | 52% | 1015.5 hPa | 0 mm | - | - | - |
| 1777408519 | 16.11° C | 51% | 1015.8 hPa | 0 mm | - | - | - |
| 1777408219 | 16.11° C | 48% | 1015.6 hPa | 0 mm | - | - | - |
| 1777407914 | 16.67° C | 49% | 1015.8 hPa | 0 mm | - | - | - |
| 1777407612 | 16.67° C | 49% | 1015.8 hPa | 0 mm | - | - | - |
* Rain latest hour (hover to see other rain measurements)
** Current wind speed in m/s (hover to see current wind gust speed)